Weather History for Marshfield, MA

Change the Weather History Date:

Monday, May 6, 2013

  Actual Average (KPYM) Record (KPYM)
Temperature  
Mean Temperature 47 °F -  
Max Temperature 57 °F 61 °F 85 °F (1949)
Min Temperature 37 °F 42 °F 30 °F (2001)
Degree Days  
Heating Degree Days 18    
Moisture  
Dew Point 45 °F    
Average Humidity 88    
Maximum Humidity 100    
Minimum Humidity 72    
Precipitation  
Precipitation 0.00 in - - ()
Sea Level Pressure  
Sea Level Pressure 30.26 in    
Wind  
Wind Speed 3 mph (ESE)    
Max Wind Speed 10 mph    
Max Gust Speed -    
Visibility 9 miles    
Events      
Averages and records for this station are not official NWS values.
T = Trace of Precipitation, MM = Missing Value Source: NWS Daily Summary

Daily Weather History Graph

Daily Weather History Graph

Search for Another Location

Airport:

Trip Planner

Search our weather history database for the weather conditions in past years. The results will help you decide how hot, cold, wet, or windy it might be!

Date:

Astronomy

May. 06, 2013 Rise Set
Actual Time 5:31 AM EDT 7:47 PM EDT
Civil Twilight 5:00 AM EDT 8:18 PM EDT
Nautical Twilight 4:22 AM EDT 8:57 PM EDT
Astronomical Twilight 3:40 AM EDT 9:39 PM EDT
Moon 3:35 AM EDT (5/6) 4:41 PM EDT (5/6)
Length of Visible Light 15h 17m
Length of Day
14h 15m
Waning Crescent, 11% of the Moon is Illuminated
May 6
Waning Crescent
May 9
New
May 18
First Quarter
May 25
Full
May 31
Last Quarter

Hourly Weather History & Observations

Time (EDT) Temp. Windchill Dew Point Humidity Pressure Visibility Wind Dir Wind Speed Gust Speed Precip Events Conditions
12:15 AM 37.4 °F - 37.4 °F 100% 30.29 in 10.0 mi Calm Calm - N/A   Clear
12:35 AM 37.4 °F - 37.4 °F 100% 30.29 in 10.0 mi Calm Calm - N/A   Clear
12:55 AM 37.4 °F - 35.6 °F 93% 30.28 in 10.0 mi Calm Calm - N/A   Partly Cloudy
1:15 AM 37.4 °F - 37.4 °F 100% 30.28 in 10.0 mi Calm Calm - N/A   Mostly Cloudy
1:35 AM 41.0 °F - 39.2 °F 93% 30.28 in 10.0 mi Calm Calm - N/A   Overcast
1:55 AM 42.8 °F - 39.2 °F 87% 30.28 in 10.0 mi Calm Calm - N/A   Overcast
2:15 AM 42.8 °F - 42.8 °F 100% 30.27 in 10.0 mi Calm Calm - N/A   Overcast
2:35 AM 44.6 °F 43.1 °F 42.8 °F 93% 30.27 in 10.0 mi West 3.5 mph - N/A   Overcast
2:55 AM 44.6 °F - 42.8 °F 93% 30.27 in 10.0 mi Calm Calm - N/A   Overcast
3:15 AM 44.6 °F - 42.8 °F 93% 30.27 in 8.0 mi Calm Calm - N/A   Overcast
3:35 AM 44.6 °F - 42.8 °F 93% 30.27 in 7.0 mi Calm Calm - N/A   Overcast
3:55 AM 44.6 °F - 42.8 °F 93% 30.27 in 5.0 mi Calm Calm - N/A   Overcast
4:15 AM 44.6 °F - 42.8 °F 93% 30.27 in 4.0 mi Calm Calm - N/A   Overcast
4:35 AM 44.6 °F - 42.8 °F 93% 30.27 in 3.0 mi Calm Calm - N/A   Overcast
4:55 AM 44.6 °F - 42.8 °F 93% 30.27 in 2.0 mi Calm Calm - N/A   Overcast
5:15 AM 44.6 °F - 42.8 °F 93% 30.27 in 3.0 mi Calm Calm - N/A   Overcast
5:35 AM 44.6 °F - 42.8 °F 93% 30.28 in 5.0 mi Calm Calm - N/A   Overcast
5:55 AM 44.6 °F - 42.8 °F 93% 30.28 in 4.0 mi Calm Calm - N/A   Overcast
6:15 AM 44.6 °F - 42.8 °F 93% 30.29 in 8.0 mi Calm Calm - N/A   Overcast
6:35 AM 44.6 °F 43.1 °F 44.6 °F 100% 30.30 in 8.0 mi East 3.5 mph - N/A   Overcast
6:55 AM 44.6 °F 42.2 °F 42.8 °F 93% 30.30 in 10.0 mi East 4.6 mph - N/A   Overcast
7:15 AM 44.6 °F - 42.8 °F 93% 30.30 in 5.0 mi Calm Calm - N/A   Overcast
7:35 AM 44.6 °F 43.1 °F 44.6 °F 100% 30.31 in 9.0 mi ESE 3.5 mph - N/A   Overcast
7:55 AM 44.6 °F - 44.6 °F 100% 30.31 in 2.0 mi Calm Calm - N/A   Overcast
8:15 AM 44.6 °F 43.1 °F 44.6 °F 100% 30.31 in 1.8 mi SE 3.5 mph - N/A   Overcast
8:35 AM 44.6 °F - 44.6 °F 100% 30.31 in 2.5 mi Calm Calm - N/A   Overcast
8:55 AM 46.4 °F - 44.6 °F 93% 30.32 in 7.0 mi Calm Calm - N/A   Overcast
9:15 AM 46.4 °F - 44.6 °F 93% 30.31 in 10.0 mi Calm Calm - N/A   Overcast
9:35 AM 48.2 °F - 44.6 °F 87% 30.31 in 10.0 mi Calm Calm - N/A   Overcast
9:55 AM 48.2 °F - 44.6 °F 87% 30.31 in 10.0 mi SE 4.6 mph - N/A   Overcast
10:15 AM 48.2 °F - 44.6 °F 87% 30.31 in 10.0 mi Calm Calm - N/A   Overcast
10:35 AM 51.8 °F - 44.6 °F 76% 30.31 in 10.0 mi ENE 5.8 mph - N/A   Overcast
10:55 AM 51.8 °F - 44.6 °F 76% 30.31 in 10.0 mi NE 8.1 mph - N/A   Overcast
11:15 AM 51.8 °F - 44.6 °F 76% 30.30 in 10.0 mi ENE 9.2 mph - N/A   Overcast
11:35 AM 51.8 °F - 44.6 °F 76% 30.30 in 10.0 mi East 6.9 mph - N/A   Mostly Cloudy
11:55 AM 51.8 °F - 44.6 °F 76% 30.29 in 10.0 mi ENE 6.9 mph - N/A   Partly Cloudy
12:15 PM 53.6 °F - 46.4 °F 77% 30.28 in 10.0 mi ESE 9.2 mph - N/A   Clear
12:35 PM 51.8 °F - 46.4 °F 82% 30.28 in 10.0 mi ESE 4.6 mph - N/A   Clear
12:55 PM 53.6 °F - 46.4 °F 77% 30.27 in 10.0 mi ESE 8.1 mph - N/A   Clear
1:15 PM 53.6 °F - 46.4 °F 77% 30.27 in 10.0 mi East 8.1 mph - N/A   Partly Cloudy
1:35 PM 53.6 °F - 46.4 °F 77% 30.26 in 10.0 mi ESE 6.9 mph - N/A   Clear
1:55 PM 51.8 °F - 46.4 °F 82% 30.26 in 10.0 mi East 9.2 mph - N/A   Partly Cloudy
2:15 PM 51.8 °F - 46.4 °F 82% 30.26 in 10.0 mi East 10.4 mph - N/A   Scattered Clouds
2:35 PM 53.6 °F - 46.4 °F 77% 30.25 in 10.0 mi East 9.2 mph - N/A   Partly Cloudy
2:55 PM 53.6 °F - 48.2 °F 82% 30.24 in 10.0 mi East 10.4 mph - N/A   Clear
3:15 PM 55.4 °F - 48.2 °F 77% 30.23 in 10.0 mi East 6.9 mph - N/A   Clear
3:35 PM 55.4 °F - 48.2 °F 77% 30.22 in 10.0 mi East 6.9 mph - N/A   Clear
3:55 PM 55.4 °F - 48.2 °F 77% 30.22 in 10.0 mi ENE 8.1 mph - N/A   Clear
4:15 PM 55.4 °F - 48.2 °F 77% 30.21 in 10.0 mi East 8.1 mph - N/A   Clear
4:35 PM 57.2 °F - 48.2 °F 72% 30.21 in 10.0 mi East 8.1 mph - N/A   Clear
4:55 PM 57.2 °F - 48.2 °F 72% 30.21 in 10.0 mi East 10.4 mph - N/A   Clear
5:15 PM 57.2 °F - 50.0 °F 77% 30.20 in 10.0 mi East 10.4 mph - N/A   Clear
5:35 PM 57.2 °F - 50.0 °F 77% 30.20 in 10.0 mi East 10.4 mph - N/A   Clear
5:55 PM 55.4 °F - 50.0 °F 82% 30.20 in 10.0 mi East 9.2 mph - N/A   Clear
6:15 PM 55.4 °F - 50.0 °F 82% 30.19 in 10.0 mi East 9.2 mph - N/A   Clear
6:55 PM 55.4 °F - 50.0 °F 82% 30.19 in 10.0 mi ESE 8.1 mph - N/A   Clear
7:15 PM 55.4 °F - 50.0 °F 82% 30.19 in 10.0 mi SE 6.9 mph - N/A   Clear
7:35 PM 55.4 °F - 50.0 °F 82% 30.19 in 10.0 mi ESE 4.6 mph - N/A   Clear
7:55 PM 55.4 °F - 50.0 °F 82% 30.19 in 10.0 mi SE 6.9 mph - N/A   Clear
8:15 PM 53.6 °F - 50.0 °F 88% 30.20 in 10.0 mi SE 4.6 mph - N/A   Clear
8:35 PM 53.6 °F - 50.0 °F 88% 30.20 in 10.0 mi SE 4.6 mph - N/A   Clear
8:55 PM 53.6 °F - 51.8 °F 94% 30.20 in 10.0 mi Calm Calm - N/A   Clear
9:15 PM 51.8 °F - 50.0 °F 94% 30.21 in 10.0 mi SSE 3.5 mph - N/A   Clear
9:35 PM 51.8 °F - 50.0 °F 94% 30.21 in 10.0 mi Calm Calm - N/A   Clear
9:55 PM 51.8 °F - 48.2 °F 88% 30.21 in 10.0 mi Calm Calm - N/A   Clear
10:15 PM 50.0 °F - 48.2 °F 94% 30.21 in 10.0 mi Calm Calm - N/A   Clear
10:35 PM 48.2 °F - 46.4 °F 93% 30.21 in 10.0 mi Calm Calm - N/A   Clear
10:55 PM 48.2 °F - 46.4 °F 93% 30.20 in 8.0 mi Calm Calm - N/A   Clear
11:15 PM 48.2 °F - 46.4 °F 93% 30.20 in 10.0 mi SW 3.5 mph - N/A   Clear
11:35 PM 48.2 °F - 46.4 °F 93% 30.20 in 10.0 mi SW 3.5 mph - N/A   Clear
11:55 PM 46.4 °F - 46.4 °F 100% 30.20 in 10.0 mi Calm Calm - N/A   Clear